When you browse on this site, cookies collect data to enhance your experience and personalize the content and advertising you see.
Visit our Privacy Policy to learn more. By continuing to use the site, you agree to this use of cookies and data.
  • In France
  • List of Countries
  • For 7 days
  • Water Temperature
  • Satellite Maps
  • Weather Map
  • Weather Widgets
  • user-avatar
    Login

    Hourly Weather Montana

    Today, 27 May, Monday

    Time Temperature Precipitation Wind Pressure Humidity
    00:00 +19°C° 0 mm 1 mps 734 mmHg 79%
    01:00 +19°C° 0 mm 1 mps 734 mmHg 80%
    02:00 +17°C° 0 mm 2 mps 734 mmHg 80%
    03:00 +17°C° 0 mm 2 mps 734 mmHg 81%
    04:00 +17°C° 0 mm 2 mps 734 mmHg 81%
    05:00 +16°C° 0 mm 1 mps 734 mmHg 82%
    06:00 +19°C° 0 mm 1 mps 734 mmHg 78%
    07:00 +21°C° 0 mm 1 mps 734 mmHg 74%
    08:00 +22°C° 0 mm 1 mps 734 mmHg 70%
    09:00 +24°C° 0 mm 1 mps 734 mmHg 65%
    10:00 +25°C° 0 mm 2 mps 734 mmHg 61%
    11:00 +27°C° 0 mm 2 mps 733 mmHg 56%
    12:00 +27°C° 0.3 mm 2 mps 733 mmHg 57%
    13:00 +28°C° 0.3 mm 2 mps 733 mmHg 58%
    14:00 +28°C° 0.3 mm 3 mps 733 mmHg 59%
    15:00 +27°C° 0.5 mm 2 mps 732 mmHg 65%
    16:00 +26°C° 0.5 mm 2 mps 732 mmHg 71%
    17:00 +25°C° 0.5 mm 2 mps 732 mmHg 77%
    18:00 +24°C° 0 mm 2 mps 731 mmHg 77%
    19:00 +23°C° 0 mm 2 mps 731 mmHg 77%
    20:00 +20°C° 0 mm 2 mps 731 mmHg 78%
    21:00 +20°C° 0 mm 2 mps 731 mmHg 77%
    22:00 +19°C° 0 mm 2 mps 731 mmHg 77%
    23:00 +18°C° 0 mm 2 mps 731 mmHg 77%

    Tomorrow, 28 May, Tuesday

    Time Temperature Precipitation Wind Pressure Humidity
    00:00 +17°C° 0 mm 2 mps 731 mmHg 77%
    01:00 +17°C° 0 mm 2 mps 731 mmHg 76%
    02:00 +17°C° 0 mm 2 mps 731 mmHg 75%
    03:00 +16°C° 0 mm 2 mps 730 mmHg 75%
    04:00 +16°C° 0 mm 2 mps 730 mmHg 75%
    05:00 +16°C° 0 mm 2 mps 730 mmHg 74%
    06:00 +18°C° 0 mm 2 mps 730 mmHg 70%
    07:00 +19°C° 0 mm 2 mps 730 mmHg 66%
    08:00 +21°C° 0 mm 2 mps 730 mmHg 62%
    09:00 +24°C° 0 mm 2 mps 730 mmHg 56%
    10:00 +26°C° 0 mm 2 mps 730 mmHg 50%
    11:00 +28°C° 0 mm 2 mps 730 mmHg 44%
    12:00 +28°C° 0 mm 3 mps 729 mmHg 41%
    13:00 +29°C° 0 mm 3 mps 729 mmHg 39%
    14:00 +30°C° 0 mm 3 mps 729 mmHg 37%
    15:00 +29°C° 0 mm 3 mps 728 mmHg 41%
    16:00 +29°C° 0 mm 3 mps 728 mmHg 45%
    17:00 +28°C° 0 mm 3 mps 728 mmHg 50%
    18:00 +26°C° 0.1 mm 3 mps 728 mmHg 57%
    19:00 +24°C° 0.1 mm 2 mps 728 mmHg 65%
    20:00 +20°C° 0.1 mm 2 mps 728 mmHg 72%
    21:00 +19°C° 0.1 mm 2 mps 728 mmHg 74%
    22:00 +19°C° 0.1 mm 2 mps 728 mmHg 76%
    23:00 +18°C° 0.1 mm 2 mps 729 mmHg 77%

    Day after tomorrow, 29 May, Wednesday

    Time Temperature Precipitation Wind Pressure Humidity
    00:00 +18°C° 0.1 mm 2 mps 729 mmHg 78%
    01:00 +17°C° 0.1 mm 2 mps 729 mmHg 78%
    02:00 +17°C° 0.1 mm 2 mps 730 mmHg 78%
    03:00 +17°C° 0 mm 2 mps 730 mmHg 78%
    04:00 +17°C° 0 mm 2 mps 730 mmHg 77%
    05:00 +16°C° 0 mm 2 mps 730 mmHg 77%
    06:00 +18°C° 0 mm 2 mps 730 mmHg 73%
    07:00 +21°C° 0 mm 1 mps 730 mmHg 69%
    08:00 +22°C° 0 mm 1 mps 731 mmHg 66%
    09:00 +24°C° 0.1 mm 1 mps 731 mmHg 62%
    10:00 +25°C° 0.1 mm 1 mps 731 mmHg 58%
    11:00 +26°C° 0.1 mm 1 mps 731 mmHg 54%
    12:00 +27°C° 0.6 mm 1 mps 731 mmHg 54%
    13:00 +27°C° 0.6 mm 1 mps 731 mmHg 54%
    14:00 +27°C° 0.6 mm 1 mps 731 mmHg 54%
    15:00 +27°C° 0.6 mm 1 mps 730 mmHg 55%
    16:00 +27°C° 0.6 mm 1 mps 730 mmHg 57%
    17:00 +26°C° 0.6 mm 1 mps 730 mmHg 58%
    18:00 +25°C° 0.5 mm 1 mps 730 mmHg 64%
    19:00 +23°C° 0.5 mm 1 mps 731 mmHg 69%
    20:00 +20°C° 0.5 mm 2 mps 731 mmHg 75%
    21:00 +20°C° 0.1 mm 2 mps 731 mmHg 76%
    22:00 +19°C° 0.1 mm 2 mps 731 mmHg 77%
    23:00 +18°C° 0.1 mm 2 mps 732 mmHg 77%

    30 May, Thursday

    Time Temperature Precipitation Wind Pressure Humidity
    00:00 +18°C° 0 mm 2 mps 732 mmHg 77%
    01:00 +19°C° 0 mm 1 mps 732 mmHg 76%
    02:00 +19°C° 0 mm 1 mps 732 mmHg 76%
    03:00 +18°C° 0 mm 1 mps 732 mmHg 76%
    04:00 +18°C° 0 mm 1 mps 732 mmHg 76%
    05:00 +18°C° 0 mm 1 mps 732 mmHg 76%
    06:00 +19°C° 0 mm 1 mps 732 mmHg 74%
    07:00 +20°C° 0 mm 1 mps 733 mmHg 73%
    08:00 +20°C° 0 mm 1 mps 733 mmHg 72%
    09:00 +21°C° 0.1 mm 1 mps 733 mmHg 68%
    10:00 +23°C° 0.1 mm 2 mps 733 mmHg 65%
    11:00 +24°C° 0.1 mm 2 mps 733 mmHg 62%
    12:00 +24°C° 0.7 mm 2 mps 733 mmHg 64%
    13:00 +24°C° 0.7 mm 2 mps 733 mmHg 66%
    14:00 +24°C° 0.7 mm 2 mps 733 mmHg 68%
    15:00 +24°C° 1.7 mm 2 mps 732 mmHg 70%
    16:00 +23°C° 1.7 mm 2 mps 732 mmHg 72%
    17:00 +23°C° 1.7 mm 2 mps 732 mmHg 74%
    18:00 +21°C° 1.3 mm 2 mps 732 mmHg 78%
    19:00 +19°C° 1.3 mm 2 mps 732 mmHg 82%
    20:00 +18°C° 1.3 mm 2 mps 732 mmHg 85%
    21:00 +17°C° 0.9 mm 2 mps 733 mmHg 87%
    22:00 +16°C° 0.9 mm 2 mps 733 mmHg 89%
    23:00 +16°C° 0.9 mm 2 mps 733 mmHg 91%

    31 May, Friday

    Time Temperature Precipitation Wind Pressure Humidity
    00:00 +15°C° 0 mm 2 mps 733 mmHg 91%
    01:00 +15°C° 0 mm 2 mps 733 mmHg 91%
    02:00 +15°C° 0 mm 2 mps 733 mmHg 92%
    03:00 +15°C° 0 mm 2 mps 733 mmHg 91%
    04:00 +15°C° 0 mm 2 mps 732 mmHg 90%
    05:00 +15°C° 0 mm 2 mps 732 mmHg 89%
    06:00 +16°C° 0.5 mm 2 mps 732 mmHg 89%
    07:00 +16°C° 0.5 mm 2 mps 732 mmHg 88%
    08:00 +16°C° 0.5 mm 2 mps 732 mmHg 88%
    09:00 +16°C° 1 mm 2 mps 732 mmHg 88%
    10:00 +16°C° 1 mm 2 mps 732 mmHg 88%
    11:00 +16°C° 1 mm 2 mps 732 mmHg 88%
    12:00 +16°C° 0.6 mm 2 mps 732 mmHg 86%
    13:00 +17°C° 0.6 mm 3 mps 732 mmHg 83%
    14:00 +17°C° 0.6 mm 3 mps 732 mmHg 81%
    15:00 +18°C° 0.1 mm 3 mps 732 mmHg 78%
    16:00 +18°C° 0.1 mm 3 mps 732 mmHg 75%
    17:00 +19°C° 0.1 mm 3 mps 732 mmHg 72%
    18:00 +18°C° 0 mm 3 mps 732 mmHg 76%
    19:00 +17°C° 0 mm 2 mps 732 mmHg 79%
    20:00 +15°C° 0 mm 2 mps 732 mmHg 83%
    21:00 +15°C° 0 mm 2 mps 732 mmHg 84%
    22:00 +14°C° 0 mm 2 mps 732 mmHg 85%
    23:00 +14°C° 0 mm 2 mps 732 mmHg 87%

    1 June, Saturday

    Time Temperature Precipitation Wind Pressure Humidity
    00:00 +14°C° 0 mm 2 mps 732 mmHg 87%
    01:00 +13°C° 0 mm 2 mps 731 mmHg 87%
    02:00 +13°C° 0 mm 2 mps 731 mmHg 88%
    03:00 +13°C° 0 mm 2 mps 731 mmHg 88%
    04:00 +13°C° 0 mm 2 mps 731 mmHg 88%
    05:00 +13°C° 0 mm 2 mps 731 mmHg 87%
    06:00 +15°C° 0 mm 2 mps 731 mmHg 83%
    07:00 +16°C° 0 mm 2 mps 731 mmHg 79%
    08:00 +18°C° 0 mm 2 mps 731 mmHg 75%
    09:00 +19°C° 0 mm 2 mps 731 mmHg 71%
    10:00 +20°C° 0 mm 2 mps 731 mmHg 68%
    11:00 +21°C° 0 mm 2 mps 731 mmHg 65%
    12:00 +21°C° 0.1 mm 3 mps 731 mmHg 65%
    13:00 +21°C° 0.1 mm 3 mps 730 mmHg 65%
    14:00 +22°C° 0.1 mm 3 mps 730 mmHg 65%
    15:00 +21°C° 0.3 mm 3 mps 730 mmHg 67%
    16:00 +21°C° 0.3 mm 4 mps 730 mmHg 69%
    17:00 +21°C° 0.3 mm 4 mps 730 mmHg 70%
    18:00 +19°C° 0.1 mm 3 mps 730 mmHg 76%
    19:00 +18°C° 0.1 mm 3 mps 730 mmHg 81%
    20:00 +17°C° 0.1 mm 2 mps 731 mmHg 86%
    21:00 +16°C° 0 mm 2 mps 731 mmHg 87%
    22:00 +15°C° 0 mm 2 mps 731 mmHg 88%
    23:00 +15°C° 0 mm 2 mps 731 mmHg 88%
    Show more